#datint,netname,site,siteID,timestamp,IntT,BattV,AirT2,AirT,AirT_Avg,AirT_Max,AirT_Min,RH_Avg,RH_Max,RH_Min,EA_Avg,Td_Avg,Td_Max,Td_Min,WindS_Smp,WindS_Avg,WindD_Avg,WindD_SD,WindS_Max,ETo,ETr,SoilT4,SoilT8,SoilVWC8,SolarW_Avg,wetstate_Avg,wetT_Avg,Precip_accum,Precip_WPG,Precip_TB
15min,AgWx,beryljct,423,11AUG2019:00:00:00,62.9,13,62.1,63.8,66.4,68.6,63.8,31,36,27,0.735,34.5,36.9,32.9,3.179,2.1,224,6.3,3.3,0.00000,0.00006,68.0,69.4,11,0,.,.,16.44,0.00,0.00
15min,AgWx,beryljct,423,11AUG2019:00:15:00,61.8,12.99,66.4,61.2,62.2,64.5,58.9,38,48,30,0.722,36.2,39.5,32.6,4.494,3.6,209,12,5.5,0.00018,0.00030,67.8,69.4,11,0,.,.,16.44,0.00,0.00
15min,AgWx,beryljct,423,11AUG2019:00:30:00,60.7,12.96,54.3,61.1,64.6,67.0,61.1,31,41,25,0.758,32.9,37.4,30.0,3.814,5.0,234,4.7,5.9,0.00041,0.00060,67.5,69.3,11,0,.,.,16.44,0.00,0.00
15min,AgWx,beryljct,423,11AUG2019:00:45:00,59.5,12.97,55.8,56.0,58.1,61.0,55.1,43,53,34,0.721,35.8,38.7,31.5,3.946,4.9,237,5.8,6.1,0.00025,0.00037,67.2,69.3,11,0,.,.,16.44,0.00,0.00
15min,AgWx,beryljct,423,11AUG2019:01:00:00,58.1,12.96,58.9,60.0,58.5,62.0,54.4,39,55,29,0.611,33.5,38.7,29.3,4.45,3.3,173,19,4.9,0.00012,0.00022,67.0,69.2,11,0,.,.,16.44,0.00,0.00
15min,AgWx,beryljct,423,11AUG2019:01:15:00,57.1,12.95,52.2,52.9,55.6,59.8,52.8,46,56,35,0.748,35.3,37.6,32.1,4.253,4.2,204,6.2,4.8,0.00016,0.00025,66.8,69.2,11,0,.,.,16.45,0.00,0.00
15min,AgWx,beryljct,423,11AUG2019:01:30:00,55.8,12.94,52.7,51.9,53.6,60.5,51.0,51,62,24,0.724,35.2,38.7,23.2,4.691,4.4,215,3.3,5.0,0.00014,0.00022,66.5,69.1,11,0,.,.,16.45,0.00,0.00
15min,AgWx,beryljct,423,11AUG2019:01:45:00,54.7,12.93,51.9,52.9,52.9,56.8,51.1,50,58,32,0.697,34.4,37.1,26.9,3.661,4.3,211,5.2,5.0,0.00014,0.00021,66.2,69.1,11,0,.,.,16.45,0.00,0.00
15min,AgWx,beryljct,423,11AUG2019:02:00:00,54.1,12.93,62.6,60.2,55.5,60.2,52.8,40,51,28,0.495,31.2,35.3,26.9,4.077,3.9,202,5.9,4.7,0.00017,0.00027,66.0,69.0,11,0,.,.,16.45,0.00,0.00
15min,AgWx,beryljct,423,11AUG2019:02:15:00,54.5,12.91,56.5,55.4,61.0,63.9,55.3,26,44,19,0.641,25.5,34.1,21.1,3.595,3.1,172,9.8,4.5,0.00017,0.00030,65.7,68.9,11,0,.,.,16.45,0.00,0.00
15min,AgWx,beryljct,423,11AUG2019:02:30:00,54.2,12.9,54.7,53.5,54.3,57.8,51.1,43,60,30,0.511,32.0,37.9,26.7,3.573,2.5,86,58,4.6,0.00000,0.00004,65.5,68.8,11,0,.,.,16.45,0.00,0.00
15min,AgWx,beryljct,423,11AUG2019:02:45:00,53.5,12.9,47.4,51.9,53.5,55.4,51.6,40,51,34,0.678,29.5,34.6,27.1,1.556,2.3,352,72,3.9,-0.00001,0.00003,65.2,68.8,11,0,.,.,16.45,0.00,0.00
15min,AgWx,beryljct,423,11AUG2019:03:00:00,52.6,12.89,50.3,50.4,52.3,56.1,48.9,47,64,31,0.686,31.9,37.2,25.6,0,2.7,305,12,4.3,0.00001,0.00005,64.9,68.7,11,0,.,.,16.44,0.00,0.00
15min,AgWx,beryljct,423,11AUG2019:03:15:00,51.8,12.88,56.3,53.6,51.2,53.6,50.1,49,56,36,0.509,32.8,35.0,27.5,0.438,0.1,311,0.5,0.6,-0.00035,-0.00056,64.7,68.6,11,0,.,.,16.45,0.00,0.00
15min,AgWx,beryljct,423,11AUG2019:03:30:00,51.1,12.87,54.5,54.2,54.1,55.5,51.6,36,48,31,0.490,27.5,33.0,25.5,0.723,0.3,308,0.0,0.9,-0.00034,-0.00052,64.5,68.5,11,0,.,.,16.45,0.00,0.00
15min,AgWx,beryljct,423,11AUG2019:03:45:00,50.3,12.86,48.1,50.7,52.9,54.3,50.7,40,52,34,0.631,29.2,34.1,26.2,0,0.3,308,0.0,1.4,-0.00033,-0.00051,64.2,68.4,11,0,.,.,16.45,0.00,0.00
15min,AgWx,beryljct,423,11AUG2019:04:00:00,49.4,12.85,46.2,47.4,48.8,51.4,47.4,59,70,41,0.732,34.8,38.1,28.7,1.995,0.7,308,0.1,2.2,-0.00025,-0.00036,64.0,68.4,11,0,.,.,16.45,0.00,0.00
15min,AgWx,beryljct,423,11AUG2019:04:15:00,48.7,12.86,50.4,50.0,48.5,50.3,46.1,45,69,33,0.494,27.6,37.2,21.7,3.376,4.3,312,11,5.6,0.00014,0.00022,63.7,68.3,11,0,.,.,16.45,0.00,0.00
15min,AgWx,beryljct,423,11AUG2019:04:30:00,48.4,12.84,46.3,47.1,48.6,51.3,45.8,54,69,35,0.672,32.0,36.4,24.5,2.653,2.8,269,20,4.5,-0.00001,0.00002,63.5,68.1,11,0,.,.,16.45,0.00,0.00
15min,AgWx,beryljct,423,11AUG2019:04:45:00,47.9,12.84,48.7,46.8,46.4,47.2,45.5,64,67,59,0.644,34.9,35.9,33.3,1.732,2.2,267,44,4.0,-0.00009,-0.00010,63.3,68.1,11,0,.,.,16.45,0.00,0.00
15min,AgWx,beryljct,423,11AUG2019:05:00:00,47.5,12.84,46.7,48.0,47.1,48.3,45.7,54,62,47,0.570,31.2,33.7,29.2,0.723,0.8,27,4.5,3.9,-0.00022,-0.00031,63.1,68.0,11,0,.,.,16.45,0.00,0.00
15min,AgWx,beryljct,423,11AUG2019:05:15:00,46.9,12.83,43.2,43.3,44.5,47.8,43.1,72,79,51,0.739,36.0,37.4,30.7,0.504,1.2,120,8.6,3.8,-0.00019,-0.00026,62.8,67.8,11,0,.,.,16.45,0.00,0.00
15min,AgWx,beryljct,423,11AUG2019:05:30:00,46.2,12.82,49.8,49.0,44.7,49.0,42.8,69,80,48,0.561,35.0,37.1,29.9,0.329,0.3,142,31,1.5,-0.00028,-0.00043,62.6,67.8,11,0,.,.,16.45,0.00,0.00
15min,AgWx,beryljct,423,11AUG2019:05:45:00,45.8,12.82,48.3,48.0,46.5,49.0,43.6,61,74,47,0.612,33.4,35.9,29.8,0,0.1,215,4.7,1.0,-0.00031,-0.00048,62.4,67.6,11,0,.,.,16.45,0.00,0.00
15min,AgWx,beryljct,423,11AUG2019:06:00:00,46.0,12.81,44.8,46.0,48.5,49.8,45.9,49,63,43,0.664,30.1,34.1,27.8,4.735,1.4,274,30,4.7,0.00018,0.00031,62.2,67.6,11,0,.,.,16.45,0.00,0.00
15min,AgWx,beryljct,423,11AUG2019:06:15:00,45.8,12.81,43.8,45.0,44.8,47.0,42.3,65,75,55,0.623,33.5,35.3,31.1,0.614,1.2,187,89,4.3,0.00011,0.00019,62.0,67.4,11,0,.,.,16.45,0.00,0.00
15min,AgWx,beryljct,423,11AUG2019:06:30:00,45.2,12.8,42.8,43.3,42.9,44.9,41.8,71,76,62,0.671,34.3,35.0,32.6,0.68,3.0,110,47,6.4,0.00019,0.00032,61.7,67.3,11,0,.,.,16.46,0.01,0.00
15min,AgWx,beryljct,423,11AUG2019:06:45:00,44.5,12.81,45.4,44.8,42.9,44.8,41.7,69,76,58,0.588,33.4,34.8,31.0,5.809,3.7,184,13,5.9,0.00024,0.00040,61.5,67.2,11,2,.,.,16.45,0.00,0.00
15min,AgWx,beryljct,423,11AUG2019:07:00:00,44.3,12.82,49.9,48.1,45.1,48.1,43.7,58,64,49,0.555,31.3,32.4,29.6,5.612,5.4,189,6.4,6.2,0.00049,0.00083,61.4,67.1,11,10,.,.,16.45,0.00,0.00
15min,AgWx,beryljct,423,11AUG2019:07:15:00,45.3,12.84,49.9,53.3,50.1,53.4,48.2,44,49,36,0.512,28.7,30.6,27.1,6.007,5.2,184,8.9,6.3,0.00090,0.00141,61.1,67.0,11,52,.,.,16.45,0.00,0.00
15min,AgWx,beryljct,423,11AUG2019:07:30:00,46.8,12.84,44.0,44.7,47.9,52.7,44.7,57,71,38,0.709,33.3,35.7,28.1,4.494,4.3,145,20,6.3,0.00080,0.00113,61.0,66.9,11,92,.,.,16.45,0.00,0.00
15min,AgWx,beryljct,423,11AUG2019:07:45:00,47.7,12.82,46.3,46.0,44.9,46.0,44.0,74,78,70,0.752,37.1,37.9,35.9,2.872,3.1,119,25,4.7,0.00072,0.00088,60.8,66.8,11,134,.,.,16.45,0.00,0.00
15min,AgWx,beryljct,423,11AUG2019:08:00:00,49.0,12.86,50.3,49.8,48.1,49.9,46.0,67,72,60,0.779,37.4,38.9,36.1,3.025,2.9,158,9.3,4.5,0.00099,0.00120,60.6,66.7,11,180,.,.,16.45,0.00,0.00
15min,AgWx,beryljct,423,11AUG2019:08:15:00,51.3,12.85,55.4,57.0,53.3,57.1,49.8,57,67,48,0.803,38.3,39.9,37.0,0.329,3.1,178,5.4,4.9,0.00138,0.00170,60.4,66.6,11,229,.,.,16.44,0.00,0.00
15min,AgWx,beryljct,423,11AUG2019:08:30:00,54.2,12.91,56.6,56.8,55.8,57.1,53.7,57,68,50,0.898,40.9,43.8,38.3,2.959,1.7,346,14,4.4,0.00160,0.00185,60.3,66.5,11,281,.,.,16.44,0.00,0.00
15min,AgWx,beryljct,423,11AUG2019:08:45:00,57.0,12.98,58.0,57.9,56.8,57.9,56.3,52,57,45,0.797,39.2,41.5,36.3,1.513,2.6,340,6.0,3.5,0.00199,0.00236,60.1,66.4,11,334,.,.,16.44,0.00,0.00
15min,AgWx,beryljct,423,11AUG2019:09:00:00,59.7,13.17,60.5,60.7,59.3,60.7,57.9,41,47,38,0.719,35.8,38.5,33.6,3.858,3.0,349,5.2,4.5,0.00244,0.00293,60.0,66.2,11,387,.,.,16.43,0.00,0.00
15min,AgWx,beryljct,423,11AUG2019:09:15:00,62.3,13.44,63.1,63.4,62.1,63.4,60.6,33,39,30,0.701,32.9,36.6,30.7,0.68,2.2,3.1,3.8,4.2,0.00279,0.00328,60.0,66.2,11,440,.,.,16.43,0.00,0.00
15min,AgWx,beryljct,423,11AUG2019:09:30:00,65.2,13.8,66.3,65.6,64.4,65.6,63.3,39,45,34,0.958,38.8,43.5,34.5,0,0.3,2.5,1.7,1.4,0.00296,0.00320,60.0,66.1,11,492,.,.,16.43,0.00,0.00
15min,AgWx,beryljct,423,11AUG2019:09:45:00,68.4,14.18,70.3,69.9,67.4,69.9,65.7,45,52,38,0.982,45.0,51.3,39.9,3.486,0.7,28,31,3.6,0.00339,0.00369,60.1,65.9,10,538,.,.,16.43,0.00,0.00
15min,AgWx,beryljct,423,11AUG2019:10:00:00,71.4,14.1,73.8,73.2,72.3,73.4,70.0,27,41,20,0.750,35.8,45.4,29.5,9.51,7.6,168,25,12.0,0.00478,0.00621,60.2,65.8,10,591,.,.,16.43,0.00,0.00
15min,AgWx,beryljct,423,11AUG2019:10:15:00,73.5,14.02,74.9,74.7,73.9,74.7,73.3,22,26,19,0.614,32.6,36.6,29.3,8.29,9.7,181,14,15.5,0.00550,0.00735,60.3,65.8,11,639,.,.,16.42,0.00,0.00
15min,AgWx,beryljct,423,11AUG2019:10:30:00,75.3,14.03,74.4,74.7,74.5,75.1,73.7,24,28,19,0.677,35.3,38.7,30.0,8.59,8.5,189,21,13.0,0.00560,0.00727,60.6,65.7,10,683,.,.,16.42,0.00,0.00
15min,AgWx,beryljct,423,11AUG2019:10:45:00,76.3,14.06,75.7,74.9,74.9,75.6,74.4,22,26,18,0.696,33.5,37.1,28.9,9.82,10.8,199,13,14.3,0.00617,0.00820,60.8,65.6,11,725,.,.,16.41,0.00,0.00
15min,AgWx,beryljct,423,11AUG2019:11:00:00,77.0,13.98,75.2,75.0,75.2,75.7,75.0,22,27,19,0.686,34.3,38.4,29.9,5.897,11.1,201,11,18.4,0.00644,0.00854,61.1,65.5,11,764,.,.,16.41,0.00,0.00
15min,AgWx,beryljct,423,11AUG2019:11:15:00,77.4,13.98,75.0,75.1,75.1,75.7,74.4,24,28,19,0.780,35.7,40.2,30.8,13.9,10.9,213,14,16.5,0.00656,0.00858,61.4,65.4,11,799,.,.,16.41,0.00,0.00
15min,AgWx,beryljct,423,11AUG2019:11:30:00,77.6,14,74.9,75.1,75.0,75.5,74.4,24,28,22,0.795,36.2,40.1,33.4,13.77,13.3,221,12,18.6,0.00693,0.00923,61.8,65.4,10,830,.,.,16.41,0.00,0.00
15min,AgWx,beryljct,423,11AUG2019:11:45:00,77.8,14,76.5,76.8,75.6,76.9,74.9,26,30,21,0.651,38.1,42.0,33.6,11.77,12.8,209,15,20.7,0.00707,0.00931,62.2,65.3,11,862,.,.,16.41,0.00,0.00
15min,AgWx,beryljct,423,11AUG2019:12:00:00,78.3,13.58,75.8,76.2,76.4,77.1,75.4,25,31,21,0.819,38.2,43.3,34.0,11.29,12.9,215,16,19.4,0.00730,0.00960,62.6,65.3,11,887,.,.,16.41,0.00,0.00
15min,AgWx,beryljct,423,11AUG2019:12:15:00,78.5,13.66,75.9,76.3,76.3,77.1,75.5,26,29,24,0.827,38.7,42.0,36.5,19.93,14.4,212,15,21.3,0.00751,0.00996,63.0,65.3,10,910,.,.,16.41,0.00,0.00
15min,AgWx,beryljct,423,11AUG2019:12:30:00,78.8,13.61,76.0,75.8,76.5,77.4,75.8,26,29,24,0.752,39.2,42.2,36.0,14.29,13.2,219,15,18.2,0.00753,0.00987,63.5,65.2,11,929,.,.,16.41,0.00,0.00
15min,AgWx,beryljct,423,11AUG2019:12:45:00,78.9,13.56,78.0,76.9,76.5,77.0,75.8,26,28,23,0.734,38.7,40.6,36.5,9.43,13.4,215,13,20.3,0.00765,0.01003,64.0,65.3,11,944,.,.,16.41,0.00,0.00
15min,AgWx,beryljct,423,11AUG2019:13:00:00,79.2,13.54,77.6,77.7,77.1,77.8,76.2,26,30,21,0.765,39.6,44.0,35.0,9.01,12.1,219,18,18.3,0.00767,0.00990,64.5,65.2,11,961,.,.,16.41,0.01,0.00
15min,AgWx,beryljct,423,11AUG2019:13:15:00,79.6,13.53,76.4,76.9,77.3,78.0,76.5,26,31,21,0.914,40.1,44.4,35.3,10.87,11.6,221,17,18.7,0.00768,0.00986,65.0,65.3,11,970,.,.,16.41,0.00,0.00
15min,AgWx,beryljct,423,11AUG2019:13:30:00,79.7,13.52,76.7,76.9,77.1,77.9,76.7,25,31,22,0.769,38.7,44.0,35.8,9.03,13.8,218,16,22.6,0.00792,0.01038,65.5,65.3,11,980,.,.,16.41,0.00,0.00
15min,AgWx,beryljct,423,11AUG2019:13:45:00,79.8,13.54,77.5,78.1,77.5,78.1,76.9,25,28,21,0.838,38.4,41.5,35.4,17.6,12.5,215,16,19.1,0.00788,0.01021,66.1,65.3,11,981,.,.,16.41,0.00,0.00
15min,AgWx,beryljct,423,11AUG2019:14:00:00,80.1,13.53,77.5,77.6,77.7,78.3,77.1,25,29,22,0.835,39.3,43.1,35.8,9.56,12.8,224,14,22.8,0.00789,0.01027,66.6,65.4,11,976,.,.,16.41,0.00,0.00
15min,AgWx,beryljct,423,11AUG2019:14:15:00,80.4,13.5,78.4,78.5,78.2,79.2,77.4,26,30,21,0.988,40.1,44.3,36.3,9.25,11.3,207,18,18.1,0.00778,0.00997,67.1,65.4,11,972,.,.,16.41,0.00,0.00
15min,AgWx,beryljct,423,11AUG2019:14:30:00,80.9,13.52,78.2,79.5,78.5,79.6,77.7,24,30,21,0.821,38.9,44.4,35.0,14.21,13.0,207,21,23.2,0.00793,0.01035,67.6,65.5,11,965,.,.,16.41,0.00,0.00
15min,AgWx,beryljct,423,11AUG2019:14:45:00,81.3,13.52,79.4,79.5,78.7,79.6,77.9,25,29,22,0.762,39.6,43.6,36.3,12.47,11.5,212,19,17.8,0.00772,0.00996,68.2,65.6,10,950,.,.,16.41,0.00,0.00
15min,AgWx,beryljct,423,11AUG2019:15:00:00,81.7,13.49,78.2,78.7,79.1,79.9,78.2,22,26,20,0.674,37.4,40.6,34.0,14.71,15.7,204,14,24.0,0.00810,0.01091,68.7,65.7,11,935,.,.,16.42,0.00,0.00
15min,AgWx,beryljct,423,11AUG2019:15:15:00,81.6,13.51,80.9,79.9,78.6,79.9,77.9,24,28,21,0.871,38.9,42.6,35.6,13.04,13.4,210,16,20.8,0.00767,0.01014,69.2,65.8,11,913,.,.,16.42,0.00,0.00
15min,AgWx,beryljct,423,11AUG2019:15:30:00,82.1,13.44,80.5,80.2,79.7,80.5,78.8,25,29,21,0.817,40.4,44.6,36.8,15.5,12.0,198,15,17.5,0.00745,0.00977,69.7,65.9,11,885,.,.,16.41,0.00,0.00
15min,AgWx,beryljct,423,11AUG2019:15:45:00,82.6,13.45,80.4,80.1,79.8,80.4,79.2,24,28,20,0.899,39.3,43.5,35.2,9.08,11.3,203,16,21.4,0.00725,0.00950,70.1,66.0,11,858,.,.,16.41,0.00,0.00
15min,AgWx,beryljct,423,11AUG2019:16:00:00,82.7,13.44,78.4,78.8,79.0,80.1,77.9,25,31,22,0.827,40.6,44.7,37.1,12.76,12.8,217,16,19.9,0.00709,0.00944,70.6,66.2,11,827,.,.,16.42,0.01,0.00
15min,AgWx,beryljct,423,11AUG2019:16:15:00,82.7,13.45,79.0,78.5,78.9,79.5,78.1,26,30,22,0.959,40.7,44.7,37.6,8.68,12.0,222,15,19.6,0.00668,0.00891,71.0,66.3,11,776,.,.,16.41,0.00,0.00
15min,AgWx,beryljct,423,11AUG2019:16:30:00,82.9,13.43,80.1,80.7,79.5,80.9,78.5,24,30,20,0.731,39.8,44.3,34.9,11.68,10.5,202,17,17.1,0.00625,0.00830,71.4,66.4,11,723,.,.,16.41,0.00,0.00
15min,AgWx,beryljct,423,11AUG2019:16:45:00,83.3,13.41,79.0,78.6,79.3,80.9,78.0,25,29,21,0.881,40.8,43.2,36.9,13.13,11.8,214,15,19.5,0.00634,0.00854,71.8,66.6,11,718,.,.,16.41,0.00,0.00
15min,AgWx,beryljct,423,11AUG2019:17:00:00,83.5,13.41,78.9,79.5,80.0,81.0,78.7,23,26,20,0.806,38.3,42.2,35.4,16.4,12.3,190,17,18.2,0.00624,0.00857,72.1,66.7,11,674,.,.,16.41,0.00,0.00
15min,AgWx,beryljct,423,11AUG2019:17:15:00,83.6,13.45,81.3,80.7,79.8,80.7,78.9,22,27,18,0.756,37.2,42.2,33.6,10.72,11.5,206,19,18.4,0.00586,0.00809,72.4,66.9,11,628,.,.,16.41,0.00,0.00
15min,AgWx,beryljct,423,11AUG2019:17:30:00,83.6,13.39,79.0,79.5,79.9,80.8,79.2,23,26,19,0.786,38.4,42.1,34.3,12.58,10.9,209,13,16.3,0.00549,0.00759,72.6,67.1,11,587,.,.,16.41,0.00,0.00
15min,AgWx,beryljct,423,11AUG2019:17:45:00,83.4,13.39,81.0,80.7,79.4,80.7,78.7,24,29,21,0.836,39.9,44.2,36.0,12.1,9.2,206,13,15.4,0.00488,0.00668,72.8,67.2,11,540,.,.,16.41,0.00,0.00
15min,AgWx,beryljct,423,11AUG2019:18:00:00,83.3,13.45,81.0,79.9,79.7,80.8,78.5,24,28,21,0.760,39.2,42.9,36.1,10.26,10.9,199,10,15.7,0.00485,0.00691,73.0,67.4,11,490,.,.,16.41,0.00,0.00
15min,AgWx,beryljct,423,11AUG2019:18:15:00,83.1,13.43,79.4,80.0,79.9,80.5,78.9,23,26,20,0.764,38.3,41.5,36.0,11.99,10.5,194,13,15.6,0.00450,0.00650,73.2,67.5,11,440,.,.,16.41,0.00,0.00
15min,AgWx,beryljct,423,11AUG2019:18:30:00,82.5,13.44,77.7,78.6,79.0,79.9,78.1,22,26,19,0.817,37.0,40.2,34.3,8.09,10.9,202,13,16.5,0.00420,0.00622,73.3,67.7,11,389,.,.,16.41,0.00,0.00
15min,AgWx,beryljct,423,11AUG2019:18:45:00,82.0,13.45,79.5,79.0,78.7,79.4,78.1,23,25,20,0.687,37.5,40.1,34.9,10.68,9.9,205,13,13.8,0.00366,0.00549,73.4,67.8,11,336,.,.,16.41,0.00,0.00
15min,AgWx,beryljct,423,11AUG2019:19:00:00,81.3,13.45,76.7,77.3,78.2,79.9,77.1,24,27,18,0.829,38.3,41.0,32.3,5.02,9.3,206,17,16.1,0.00320,0.00491,73.4,68.0,11,284,.,.,16.41,0.00,0.00
15min,AgWx,beryljct,423,11AUG2019:19:15:00,80.6,13.24,77.5,77.3,77.9,78.7,76.9,25,29,22,0.801,38.8,41.9,36.1,8.05,8.1,200,10,12.9,0.00261,0.00409,73.4,68.1,11,235,.,.,16.42,0.00,0.00
15min,AgWx,beryljct,423,11AUG2019:19:30:00,80.0,13.17,78.2,78.0,77.9,78.6,77.4,23,26,22,0.757,37.6,40.0,36.0,11.03,10.2,192,13,16.5,0.00270,0.00448,73.4,68.3,11,185,.,.,16.42,0.00,0.00
15min,AgWx,beryljct,423,11AUG2019:19:45:00,79.3,13.14,76.9,77.2,77.3,78.1,76.4,24,27,22,0.757,37.8,39.9,36.0,8.05,9.2,200,11,15.5,0.00143,0.00188,73.3,68.4,11,138,.,.,16.42,0.00,0.00
15min,AgWx,beryljct,423,11AUG2019:20:00:00,78.3,13.16,75.8,75.7,75.9,77.3,74.6,25,28,23,0.726,37.9,39.3,36.3,7.497,7.1,202,7.4,10.0,0.00108,0.00148,73.1,68.5,11,95,.,.,16.42,0.00,0.00
15min,AgWx,beryljct,423,11AUG2019:20:15:00,77.1,13.14,75.5,75.2,75.4,76.1,74.5,25,26,23,0.678,36.7,37.6,34.6,9.8,7.6,189,6.2,10.9,0.00103,0.00141,73.0,68.6,11,57,.,.,16.42,0.00,0.00
15min,AgWx,beryljct,423,11AUG2019:20:30:00,75.5,13.1,70.1,72.1,73.8,75.4,72.1,25,28,22,0.751,35.5,37.2,34.3,4.911,6.7,191,6.3,9.9,0.00081,0.00114,72.8,68.8,11,19,.,.,16.42,0.00,0.00
15min,AgWx,beryljct,423,11AUG2019:20:45:00,73.5,13.09,67.4,69.3,70.7,71.9,69.3,30,33,28,0.795,37.7,38.6,37.1,3.793,5.3,196,5.1,6.7,0.00051,0.00075,72.6,68.9,11,4,.,.,16.42,0.00,0.00
15min,AgWx,beryljct,423,11AUG2019:21:00:00,71.3,13.08,68.5,68.1,69.1,70.7,67.4,32,36,28,0.758,37.7,39.7,35.8,4.538,4.5,184,5.7,5.7,0.00037,0.00057,72.3,68.9,11,1,.,.,16.43,0.00,0.00
15min,AgWx,beryljct,423,11AUG2019:21:15:00,69.3,13.07,66.4,65.4,67.2,69.7,65.3,35,40,29,0.835,38.4,40.2,36.0,4.976,4.8,188,5.8,6.4,0.00037,0.00056,72.1,69.0,11,0,.,.,16.42,0.00,0.00
15min,AgWx,beryljct,423,11AUG2019:21:30:00,67.5,13.06,68.4,66.5,66.5,67.9,65.1,35,40,32,0.742,38.2,40.2,36.5,4.582,4.7,182,5.6,5.9,0.00035,0.00053,71.8,69.1,11,0,.,.,16.43,0.00,0.00
15min,AgWx,beryljct,423,11AUG2019:21:45:00,66.2,13.05,64.3,63.6,65.0,67.0,62.7,37,42,32,0.824,37.8,39.7,36.1,5.875,5.0,187,8.4,5.9,0.00036,0.00053,71.5,69.1,11,0,.,.,16.43,0.01,0.00
15min,AgWx,beryljct,423,11AUG2019:22:00:00,65.1,13.04,67.5,67.0,65.4,67.0,63.6,36,41,32,0.723,37.8,39.7,36.2,5.831,5.8,203,2.6,6.5,0.00044,0.00064,71.2,69.1,11,0,.,.,16.43,0.00,0.00
15min,AgWx,beryljct,423,11AUG2019:22:15:00,64.4,13.04,60.8,60.3,62.5,67.5,59.3,42,49,31,0.782,38.7,40.2,35.9,6.467,5.2,164,17,6.5,0.00033,0.00048,70.9,69.2,11,0,.,.,16.43,0.00,0.00
15min,AgWx,beryljct,423,11AUG2019:22:30:00,63.0,13.03,63.8,63.2,61.4,63.2,60.0,40,45,35,0.691,36.9,38.7,35.0,6.445,6.0,164,6.7,7.3,0.00039,0.00055,70.6,69.2,11,0,.,.,16.44,0.00,0.00
15min,AgWx,beryljct,423,11AUG2019:22:45:00,62.6,13.02,64.5,64.4,64.4,65.1,63.1,32,35,30,0.641,33.8,35.3,33.0,5.261,5.6,175,4.9,7.2,0.00046,0.00065,70.3,69.3,11,0,.,.,16.44,0.00,0.00
15min,AgWx,beryljct,423,11AUG2019:23:00:00,62.4,13.01,63.0,62.6,63.6,64.9,61.9,32,35,30,0.673,33.5,34.6,32.8,6.357,5.6,180,7.3,7.1,0.00044,0.00063,70.0,69.3,11,0,.,.,16.44,0.00,0.00
15min,AgWx,beryljct,423,11AUG2019:23:15:00,62.3,13.01,63.4,64.0,64.3,65.3,62.6,32,35,30,0.670,33.5,34.4,33.0,4.757,6.2,190,3.8,7.7,0.00051,0.00071,69.7,69.3,11,0,.,.,16.44,0.00,0.00
15min,AgWx,beryljct,423,11AUG2019:23:30:00,62.0,13,60.7,59.1,61.1,63.9,57.7,38,47,33,0.681,35.3,37.8,33.6,5.678,5.7,167,16,7.4,0.00038,0.00054,69.4,69.3,11,0,.,.,16.44,0.00,0.00
15min,AgWx,beryljct,423,11AUG2019:23:45:00,60.9,12.99,61.0,60.9,60.2,61.2,59.2,37,40,34,0.625,33.6,34.8,32.4,4.297,4.9,179,3.8,5.9,0.00031,0.00046,69.1,69.3,11,0,.,.,16.44,0.00,0.00
15min,AgWx,beryljct,423,12AUG2019:00:00:00,60.1,12.98,57.6,57.9,60.2,61.2,57.9,36,42,32,0.682,32.8,35.0,31.4,3.968,4.8,175,7.5,5.9,0.00031,0.00046,68.8,69.2,11,0,.,.,16.44,0.00,0.00
15min,AgWx,beryljct,423,12AUG2019:00:15:00,59.2,12.97,58.3,56.8,58.1,60.3,56.3,43,49,35,0.699,35.4,37.7,32.5,4.56,2.9,98,80,5.6,0.00006,0.00012,68.5,69.2,11,0,.,.,16.44,0.00,0.00
15min,AgWx,beryljct,423,12AUG2019:00:30:00,58.0,12.96,52.6,53.1,55.1,58.6,51.0,51,66,40,0.780,36.9,40.0,34.5,0.702,3.6,75,16,5.4,0.00009,0.00016,68.3,69.2,11,0,.,.,16.44,0.00,0.00
15min,AgWx,beryljct,423,12AUG2019:00:45:00,56.6,12.96,53.9,52.6,54.0,55.7,52.5,55,61,48,0.819,38.1,39.5,36.5,0.723,1.3,259,67,4.2,-0.00018,-0.00023,68.0,69.1,11,0,.,.,16.44,0.00,0.00
15min,AgWx,bigpiney,439,11AUG2019:00:00:00,51.4,12.74,46.6,46.9,46.4,47.9,44.7,80,85,75,0.832,40.4,41.4,38.7,3.288,3.3,231,72,4.7,-0.00006,-0.00006,55.4,52.6,49,0,0,0.0,4.17,0.00,0.00
15min,AgWx,bigpiney,439,11AUG2019:00:15:00,50.9,12.74,44.0,44.8,46.6,47.4,44.8,74,78,72,0.783,38.8,39.7,37.8,4.362,2.8,277,24,4.4,-0.00005,-0.00005,55.4,52.7,49,0,0,0.0,4.17,0.00,0.00
15min,AgWx,bigpiney,439,11AUG2019:00:30:00,50.2,12.74,43.4,43.8,44.4,45.3,43.8,80,82,78,0.777,38.6,39.5,38.0,3.858,4.1,236,8.1,5.7,-0.00003,-0.00002,55.3,52.6,49,0,0,0.0,4.17,0.00,0.00
15min,AgWx,bigpiney,439,11AUG2019:00:45:00,49.4,12.73,40.3,40.9,42.5,43.9,40.9,84,87,80,0.751,37.9,39.0,37.2,2.017,2.9,209,13,4.1,-0.00008,-0.00010,55.2,52.6,49,0,0,0.0,4.17,0.00,0.00
15min,AgWx,bigpiney,439,11AUG2019:01:00:00,48.6,12.71,41.5,40.9,40.5,41.0,40.2,89,90,86,0.776,37.4,38.1,36.7,2.718,2.5,253,12,4.3,-0.00011,-0.00014,55.2,52.7,49,0,0,0.0,4.17,0.00,0.00
15min,AgWx,bigpiney,439,11AUG2019:01:15:00,47.9,12.71,45.6,43.9,42.4,43.9,40.9,86,89,82,0.811,38.4,39.2,37.6,3.003,2.7,235,20,4.7,-0.00010,-0.00011,55.1,52.7,49,0,0,0.0,4.17,0.00,0.00
15min,AgWx,bigpiney,439,11AUG2019:01:30:00,47.3,12.7,42.2,41.5,42.1,44.9,41.0,83,86,78,0.756,37.4,39.7,36.7,2.828,4.7,207,7.4,7.0,-0.00003,-0.00002,55.1,52.7,49,0,0,0.0,4.17,0.00,0.00
15min,AgWx,bigpiney,439,11AUG2019:01:45:00,46.9,12.69,42.1,41.8,42.1,42.8,41.5,84,85,82,0.759,37.5,38.0,37.0,4.845,3.7,215,6.8,5.6,-0.00006,-0.00006,55.0,52.7,49,0,0,0.0,4.17,0.00,0.00
15min,AgWx,bigpiney,439,11AUG2019:02:00:00,46.6,12.68,40.9,41.4,41.9,42.4,41.4,84,85,84,0.746,37.6,38.1,37.0,2.148,4.0,213,6.4,5.4,-0.00005,-0.00005,55.0,52.7,49,0,0,0.0,4.17,0.00,0.00
15min,AgWx,bigpiney,439,11AUG2019:02:15:00,46.3,12.67,42.4,42.3,42.5,43.9,41.3,84,87,82,0.769,38.2,39.7,36.9,2.192,2.0,272,42,3.4,-0.00012,-0.00015,54.9,52.7,49,0,0,0.0,4.17,0.00,0.00
15min,AgWx,bigpiney,439,11AUG2019:02:30:00,46.0,12.67,42.7,42.5,42.5,42.9,42.1,82,84,80,0.742,37.4,38.3,36.8,4.691,3.8,324,19,5.2,-0.00005,-0.00005,54.8,52.7,49,0,0,0.0,4.17,0.00,0.00
15min,AgWx,bigpiney,439,11AUG2019:02:45:00,45.9,12.66,44.3,43.8,43.1,43.9,42.3,79,81,77,0.759,37.0,37.5,36.6,4.538,4.1,335,14,4.9,-0.00002,-0.00002,54.7,52.7,49,0,0,0.0,4.17,0.00,0.00
15min,AgWx,bigpiney,439,11AUG2019:03:00:00,45.9,12.65,42.3,42.9,43.6,44.2,42.8,79,81,77,0.737,37.4,37.9,36.4,3.244,2.4,298,62,5.2,-0.00009,-0.00010,54.7,52.7,49,0,0,0.0,4.17,0.00,0.00
15min,AgWx,bigpiney,439,11AUG2019:03:15:00,46.1,12.64,43.8,43.4,42.3,43.4,41.7,85,87,79,0.832,38.0,39.8,36.6,3.31,3.9,207,24,5.2,-0.00006,-0.00006,54.6,52.7,49,0,0,0.0,4.17,0.00,0.00
15min,AgWx,bigpiney,439,11AUG2019:03:30:00,46.3,12.63,44.6,44.1,43.2,44.1,42.2,87,88,85,0.834,39.4,40.1,38.6,3.551,4.7,229,14,5.9,-0.00005,-0.00005,54.5,52.7,49,0,0,0.0,4.17,0.00,0.00
15min,AgWx,bigpiney,439,11AUG2019:03:45:00,46.6,12.61,44.7,44.4,44.2,44.4,44.0,85,87,84,0.861,40.1,40.7,39.7,6.138,3.6,210,14,6.1,-0.00007,-0.00008,54.5,52.7,49,0,0,0.0,4.17,0.00,0.00
15min,AgWx,bigpiney,439,11AUG2019:04:00:00,47.1,12.61,49.7,49.1,46.9,49.1,44.2,81,87,74,0.874,41.4,42.0,40.6,4.319,3.0,262,21,7.0,-0.00007,-0.00008,54.4,52.7,49,0,0,0.0,4.17,0.00,0.00
15min,AgWx,bigpiney,439,11AUG2019:04:15:00,47.9,12.59,51.8,51.3,49.6,51.3,48.4,74,77,69,0.888,41.5,41.9,40.8,2.061,3.5,254,9.6,5.4,-0.00002,-0.00000,54.3,52.7,49,0,0,0.0,4.17,0.00,0.00
15min,AgWx,bigpiney,439,11AUG2019:04:30:00,48.9,12.58,47.4,48.2,49.8,51.4,48.2,75,80,69,0.917,42.2,42.7,41.5,2.455,2.0,130,33,3.6,-0.00010,-0.00012,54.2,52.7,49,0,0,0.0,4.17,0.00,0.00
15min,AgWx,bigpiney,439,11AUG2019:04:45:00,49.5,12.57,46.5,46.4,46.9,48.1,46.3,85,87,80,0.925,42.6,42.8,42.3,2.74,3.6,104,8.4,4.8,-0.00007,-0.00008,54.2,52.6,49,0,0,0.0,4.17,0.00,0.00
15min,AgWx,bigpiney,439,11AUG2019:05:00:00,49.7,12.56,46.6,46.4,46.4,46.6,46.3,85,87,85,0.906,42.3,42.6,42.0,2.828,2.7,143,22,3.7,-0.00010,-0.00012,54.1,52.7,49,0,0,0.0,4.17,0.00,0.00
15min,AgWx,bigpiney,439,11AUG2019:05:15:00,49.6,12.55,47.2,46.9,46.3,46.9,45.8,86,88,84,0.921,42.2,42.7,41.7,1.929,3.1,232,29,4.6,-0.00009,-0.00010,54.0,52.6,49,0,0,0.0,4.17,0.00,0.00
15min,AgWx,bigpiney,439,11AUG2019:05:30:00,49.6,12.54,47.9,47.3,46.9,47.3,46.7,84,85,83,0.928,42.4,42.7,42.1,2.872,2.4,241,15,3.6,-0.00011,-0.00013,54.0,52.7,49,0,0,0.0,4.17,0.00,0.00
15min,AgWx,bigpiney,439,11AUG2019:05:45:00,49.5,12.53,48.7,48.4,48.2,49.1,47.3,79,84,76,0.898,42.2,42.7,41.5,2.894,2.9,266,9.8,4.1,-0.00007,-0.00008,53.9,52.6,49,0,1,0.0,4.17,0.00,0.00
15min,AgWx,bigpiney,439,11AUG2019:06:00:00,49.4,12.51,51.5,51.6,50.5,51.8,48.3,70,78,66,0.863,41.2,41.9,40.7,1.359,1.5,239,12,2.8,-0.00013,-0.00016,53.9,52.6,49,0,1,0.0,4.17,0.00,0.00
15min,AgWx,bigpiney,439,11AUG2019:06:15:00,49.2,12.52,44.6,45.0,48.2,51.5,45.0,75,83,66,0.844,40.5,41.1,40.0,5.217,3.6,226,9.6,5.5,-0.00002,-0.00000,53.8,52.6,49,0,1,0.0,4.17,0.00,0.00
15min,AgWx,bigpiney,439,11AUG2019:06:30:00,48.4,12.51,44.2,44.1,43.7,45.0,43.1,85,86,83,0.836,39.4,40.2,38.7,4.669,5.2,226,6.9,5.9,-0.00002,-0.00001,53.7,52.6,49,3,0,0.0,4.17,0.00,0.00
15min,AgWx,bigpiney,439,11AUG2019:06:45:00,47.7,12.54,45.0,44.4,43.9,44.4,43.6,85,86,85,0.846,39.8,40.2,39.5,4.669,4.5,232,5.5,5.4,-0.00011,-0.00003,53.7,52.6,49,14,0,0.0,4.17,0.00,0.00